Regional Weather Roundup
Issued by NWS

Home | Current Version | Previous Version | Graphics & Text | Print | Product List | Glossary On
Versions: 1 2 3 4 5 6 7 8 9 10 11 12 13 14 15 16 17 18 19 20 21 22 23 24 25 26 27 28 29 30 31 32 33 34 35 36 37 38 39 40 41 42 43 44 45 46 47 48 49 50
000
ASUS45 KABQ 020101
RWRNM
NEW MEXICO REGIONAL WEATHER ROUNDUP
NATIONAL WEATHER SERVICE ALBUQUERQUE NM
700 PM MDT TUE SEP 01 2015

NOTE: "FAIR" MEANS FEW OR NO CLOUDS BELOW 12,000 FEET AGL WITH NO
       SIGNIFICANT WEATHER OR OBSTRUCTIONS TO VISION.

      THIS PRODUCT IS RELEASED AS TWO VERSIONS.  ONE VERSION NEAR
      THE TOP OF THE HOUR CONTAINING PRELIMINARY DATA FROM ALBUQUERQUE
      AND OTHER STATIONS.  A FINAL VERSION WITH ADDITIONAL DATA IS
      ISSUED ABOUT 10 MINUTES AFTER THE HOUR.

NMZ501-503-504-510>518-020200-
NORTHWEST PLATEAU/NORTHCENTRAL MOUNTAINS

CITY           SKY/WX    TMP DP  RH WIND       PRES   REMARKS
FARMINGTON     CLEAR     81  43  26 SW13      30.10S
SANTA FE       MOCLDY    79  42  26 W12G22    30.18S
TAOS           PTCLDY    75  39  27 SW10      30.26S

$$
NMZ402-403-502-505>509-020200-
WESTCENTRAL MOUNTAINS/SOUTHWEST MOUNTAINS

CITY           SKY/WX    TMP DP  RH WIND       PRES   REMARKS
GALLUP         MOCLDY    76  45  33 NW6       30.21S
SILVER CITY      N/A     81  48  32 W3        30.16S

$$
NMZ407-409-411-412-020200-
SOUTHERN DESERTS

CITY           SKY/WX    TMP DP  RH WIND       PRES   REMARKS
DEMING         MOCLDY    88  46  23 W3        30.04S
HOLLOMAN AFB   CLEAR     94  38  14 NW5       29.99S
ALAMOGORDO     CLEAR     91  39  16 SW8       30.02R
T OR C         MOCLDY    83  49  30 NW10      30.08R

$$
NMZ519>523-020200-
CENTRAL VALLEYS/CENTRAL HIGHLANDS

CITY           SKY/WX    TMP DP  RH WIND       PRES   REMARKS
ALBUQUERQUE    MOCLDY    84  42  22 S14       30.13S
DOUBLE EAGLE   MOCLDY    79  46  31 S6        30.17S
MORIARTY ARPT  FAIR      76  40  27 W7        30.20S
CLINES CORNERS MOCLDY    72  43  35 W14       30.25R
BELEN          FAIR      79  45  29 S8        30.12S
SOCORRO        NOT AVBL

$$
NMZ524>526-539-540-020200-
SOUTHCENTRAL MOUNTAINS

CITY           SKY/WX    TMP DP  RH WIND       PRES   REMARKS
RUIDOSO        NOT AVBL

$$
NMZ527>531-020200-
NORTHEAST HIGHLANDS/NORTHEAST PLAINS

CITY           SKY/WX    TMP DP  RH WIND       PRES   REMARKS
LAS VEGAS      MOCLDY    70  50  49 E6        30.23F
RATON          PTCLDY    73  46  38 SW12      30.16S
CLAYTON        CLOUDY    75  56  51 N7        30.09S

$$
NMZ532>537-020200-
EASTCENTRAL PLAINS

CITY           SKY/WX    TMP DP  RH WIND       PRES   REMARKS
TUCUMCARI      MOCLDY    83  48  29 CALM      30.00R
CANNON AFB     CLEAR     85  51  30 S13       30.05R
CLOVIS AIRPORT CLEAR     84  50  30 S14       30.07S

$$
NMZ028-029-538-020200-
SOUTHEAST PLAINS

CITY           SKY/WX    TMP DP  RH WIND       PRES   REMARKS
ROSWELL        CLEAR     91  50  24 SE15      29.99S
ARTESIA        CLEAR     90  52  27 SE15G21   29.99S
CARLSBAD       CLEAR     93  48  21 SE16      29.96S


$$


USA.gov is the U.S. government's official web portal to all federal, state and local government web resources and services.